Printer-friendly version

IAU Minor Planet Center

Minor Planet Center

MPEC 2006-T14 : 2006 TF

The following Minor Planet Electronic Circular may be linked-to from your own Web pages, but must not otherwise be redistributed electronically.


Read MPEC 2006-T13 Read MPEC 2006-T15


M.P.E.C. 2006-T14                                Issued 2006 Oct. 2, 16:47 UT

     The Minor Planet Electronic Circulars contain information on unusual
         minor planets and routine data on comets.  They are published
   on behalf of Commission 20 of the International Astronomical Union by the
          Minor Planet Center, Smithsonian Astrophysical Observatory,
                          Cambridge, MA 02138, U.S.A.

             Prepared using the Tamkin Foundation Computer Network

                              MPC@CFA.HARVARD.EDU
          URL http://cfa-www.harvard.edu/iau/mpc.html  ISSN 1523-6714

                                    2006 TF

Observations:
     K06T00F* C2006 10 01.39489 03 34 10.81 +16 19 46.7          20.5 V ET014G96
     K06T00F  C2006 10 01.39540 03 34 11.49 +16 19 44.9          20.2 V ET014G96
     K06T00F  C2006 10 01.39593 03 34 12.21 +16 19 43.0          20.3 V ET014G96
     K06T00F  C2006 10 01.39646 03 34 12.93 +16 19 41.9          20.1 V ET014G96
     K06T00F  C2006 10 01.40204 03 34 20.35 +16 19 27.0          20.9 V ET014G96
     K06T00F  C2006 10 01.40267 03 34 21.18 +16 19 25.2          20.4 V ET014G96
     K06T00F  C2006 10 01.40329 03 34 22.00 +16 19 23.4          19.8 V ET014G96
     K06T00F  C2006 10 01.40391 03 34 22.83 +16 19 22.0          20.0 V ET014G96
     K06T00F  C2006 10 02.45205 03 56 58.09 +15 30 50.9          20.4 V ET014G96
     K06T00F  C2006 10 02.45770 03 57 04.21 +15 30 35.1          20.5 V ET014G96
     K06T00F  C2006 10 02.46337 03 57 10.36 +15 30 19.6          20.7 V ET014G96
     K06T00F  C2006 10 02.46900 03 57 16.41 +15 30 03.7          20.3 V ET014G96

Observer details:
G96 Mt. Lemmon Survey.  Observers R. A. Kowalski, E. C. Beshore.  Measurers
    E. C. Beshore, E. J. Christensen, G. J. Garradd, A. R. Gibbs, A. D. Grauer,
    R. E. Hill, R. A. Kowalski, S. M. Larson, R. H. McNaught.  1.5-m reflector
    + CCD.

Orbital elements:
2006 TF                                                  Earth MOID = 0.0225 AU
Epoch 2006 Sept. 22.0 TT = JDT 2454000.5                MPC
M 357.26998              (2000.0)            P               Q
n   0.26666785     Peri.  182.41785     +0.98384731     -0.17880768
a   2.3905011      Node   187.89778     +0.16525903     +0.92550262
e   0.5718935      Incl.    3.54740     +0.06880350     +0.33387531
P   3.70           H   25.9           G   0.15           U   8
Residuals in seconds of arc
061001 G96  0.1-  0.5+    061001 G96  0.1+  0.0     061002 G96  0.0   0.2-
061001 G96  0.1-  0.1+    061001 G96  0.0   0.1-    061002 G96  0.1+  0.2-
061001 G96  0.1+  0.4-    061001 G96  0.1-  0.3-    061002 G96  0.4+  0.2+
061001 G96  0.3+  0.1-    061001 G96  0.0   0.0     061002 G96  0.1-  0.1+

Ephemeris:
2006 TF                  a,e,i = 2.39, 0.57, 4                   q = 1.0234
Date    TT    R. A. (2000) Decl.     Delta      r     Elong.  Phase     V
2006 10 02    03 47.75   +15 53.0    0.0341   1.023   130.2    48.3    20.4
2006 10 03    04 07.15   +15 07.1    0.0372   1.023   126.6    51.7    20.7
2006 10 04    04 23.24   +14 23.7    0.0406   1.024   123.8    54.3    21.0
2006 10 05    04 36.67   +13 43.8    0.0441   1.024   121.6    56.3    21.2
2006 10 06    04 47.95   +13 07.7    0.0477   1.024   119.8    57.8    21.4
2006 10 07    04 57.49   +12 35.4    0.0515   1.025   118.5    59.0    21.6
2006 10 08    05 05.62   +12 06.4    0.0553   1.026   117.5    59.8    21.8
2006 10 09    05 12.60   +11 40.4    0.0591   1.027   116.7    60.3    22.0
2006 10 10    05 18.64   +11 17.2    0.0630   1.028   116.2    60.6    22.1
2006 10 11    05 23.87   +10 56.3    0.0670   1.029   115.9    60.8    22.3
2006 10 12    05 28.44   +10 37.4    0.0709   1.031   115.7    60.7    22.4

Timothy B. Spahr             (C) Copyright 2006 MPC           M.P.E.C. 2006-T14

Read MPEC 2006-T13 Read MPEC 2006-T15


Our Web policy. Index to the CBAT/MPC/ICQ pages.


Valid HTML 4.01!